Regional Weather Roundup
Issued by NWS New Orleans/Baton Rouge, LA

Home | Current Version | Previous Version | Text Only | Print | Product List | Glossary On
Versions: 1 2 3 4 5 6 7 8 9 10 11 12 13 14 15 16 17 18 19 20 21 22 23 24 25 26 27 28 29 30 31 32 33 34 35 36 37 38 39 40 41 42 43 44 45 46 47 48 49 50
000
ASUS44 KLIX 291014
RWRLIX
NEW ORLEANS REGIONAL WEATHER ROUNDUP
NATIONAL WEATHER SERVICE NEW ORLEANS LA
500 AM CDT MON MAY 29 2017

NOTE: "FAIR" INDICATES FEW OR NO CLOUDS BELOW 12,000 FEET WITH NO
      SIGNIFICANT WEATHER AND/OR OBSTRUCTIONS TO VISIBILITY.
      SKY/WX - SKY CONDITION AND SIGNIFICANT WEATHER.
      TMP - AIR TEMPERATURE.     DP    - DEWPOINT TEMPERATURE.
      RH  - RELATIVE HUMIDITY.   PRES  - PRESSURE.
      HI  - HEAT INDEX.          WCI   - WIND CHILL INDEX.

*  THESE STATIONS ARE NOT NWS OR FAA STATIONS AND ARE NOT UNDER
   NWS QUALITY CONTROL.

LAZ038-040-048-061>063-065>067-069-291100-
SOUTHEAST LOUISIANA

CITY           SKY/WX    TMP DP  RH WIND       PRES   REMARKS
N.O. INTL ARPT CLOUDY    75  63  66 E9        29.99R
N.O. LAKEFRONT MOCLDY    75  65  70 NE12      29.98F
N.O. DOWNTOWN*   N/A     74  64  71 VRB3        N/A
RESERVE*       CLOUDY    72  65  77 CALM      29.97R
SLIDELL        PTCLDY    71  62  73 E3        29.96F
BATON ROUGE    CLOUDY    68  63  84 S6        29.96F
BOOTHVILLE     CLOUDY    74  68  81 N8        30.00R
BELLE CHASSE   CLOUDY   N/A N/A N/A SE7       30.01R THUNDER
BOGALUSA*        N/A     70  62  75 CALM      29.95F
GALLIANO*      TSTM      68  65  88 NE13G20   30.00S
NEW ROADS*       N/A     66  64  93 S3        29.94F
GONZALES*      RAIN      69  64  83 CALM      29.98R
HAMMOND*       CLOUDY    70  61  73 CALM      29.93F
HOUMA*         NOT AVBL
PORT FOURCHON* PTSUNNY   75  66  73 N16G22    30.01R

$$

MSZ070-080>082-291100-
SOUTHERN MISSISSIPPI

CITY           SKY/WX    TMP DP  RH WIND       PRES   REMARKS
MCCOMB         CLOUDY    65  62  90 NW8       29.96R
GULFPORT       MOCLDY    73  68  84 N7        29.96S
BILOXI         CLOUDY    72  68  87 N5        29.95F
PASCAGOULA     LGT RAIN  73  70  90 CALM      29.96F

$$

COASTAL OBSERVATIONS
LAKE AND NEARSHORE STATIONS

STATION/POSITION TIME  TEMP    WIND        PRES    WAVE
                       AIR SEA DIR/SP/G            HT/PER
                 (UTC) (F)     (DEG/KT/KT) (MB)    (FT/S)
PASCAGOULA       0948   72      80/  2/  4 1014.3
WAVELAND YACHT   0948   72 79   20/  7/ 10 1014.5
GRAND ISLE       0948   74 81   20/ 14/ 18 1015.6
SOUTHWEST PASS   0948          350/ 14/ 15   N/A
NEW CANAL        0948   75 80   70/ 14/ 16 1014.9
SHELL BEACH      0948   74 81   40/ 10/ 13 1015.2

OFFSHORE STATIONS

STATION/POSITION TIME  TEMP    WIND        PRES    WAVE
                       AIR SEA DIR/SP/G            HT/PER
                 (UTC) (F)     (DEG/KT/KT) (MB)    (FT/S)
64 S DAUPHIN ISL 0950   79 80  220/ 14/ 16 1014.8    4/ 6

$$




USA.gov is the U.S. government's official web portal to all federal, state and local government web resources and services.